DW3396 Weather Reports


time (UTC)temp
C
wind
direction
speed
KPH
gust
KPH
rain 1hr
cm
rain 24hr
cm
rain mn
cm
humidity
%
barometer
mb
20260906064528 22 85 4.8 12.9 0.00 0.00 0.00 88 1015.5
20260906063026 22 151 1.6 14.5 0.00 0.00 0.00 89 1015.2
20260906061524 22 112 3.2 12.9 0.00 0.00 0.00 88 1015.1
20260906060027 22 69 3.2 12.9 0.00 0.00 0.00 87 1015.2
20260906054536 22 180 3.2 14.5 0.00 0.00 0.00 86 1015.3
20260906053018 22 189 3.2 16.1 0.00 0.00 0.00 86 1015.3
20260906051516 23 114 3.2 12.9 0.00 0.00 0.00 87 1015.1
20260906050014 23 61 1.6 14.5 0.00 0.00 0.00 88 1014.9
20260906044514 23 96 0.0 6.4 0.00 0.00 0.00 88 1014.9
20260906043017 23 76 0.0 4.8 0.00 0.00 0.00 88 1014.9
20260906041510 23 73 0.0 4.8 0.00 0.00 0.00 88 1014.5
20260906040011 23 50 0.0 4.8 0.00 0.00 0.00 88 1014.2
20260906034514 23 80 0.0 0.0 0.00 0.00 0.00 88 1014.0
20260906033016 23 73 0.0 3.2 0.00 0.00 0.00 88 1014.0
20260906031505 23 78 0.0 0.0 0.00 0.00 0.00 88 1013.9
20260906030001 23 60 0.0 0.0 0.00 0.00 0.00 87 1013.8
20260906024613 23 72 0.0 1.6 0.00 0.00 0.00 87 1013.6
20260906023103 23 105 0.0 0.0 0.00 0.00 0.00 87 1013.4
20260906021556 23 140 0.0 0.0 0.00 0.00 0.00 87 1013.3
20260906020054 23 105 0.0 3.2 0.00 0.00 0.00 86 1013.1
20260906014552 24 165 1.6 11.3 0.00 0.00 0.00 85 1012.9
20260906013051 24 78 3.2 12.9 0.00 0.00 0.00 85 1012.7
20260906011550 25 65 1.6 12.9 0.00 0.00 0.00 84 1012.6
20260906010050 25 97 3.2 14.5 0.00 0.00 0.00 82 1012.8
20260906004549 25 26 3.2 14.5 0.00 0.00 0.00 82 1012.7
20260906003048 26 28 1.6 14.5 0.00 0.00 0.00 82 1012.8
20260906001548 26 70 0.0 12.9 0.00 0.00 0.00 80 1012.7
20260906000047 27 26 1.6 9.7 0.00 0.00 0.00 80 1012.6
20260905234547 27 84 4.8 16.1 0.00 0.00 0.00 79 1012.4
20260905233055 27 103 3.2 14.5 0.00 0.00 0.00 79 1012.3
20260905231546 28 324 4.8 19.3 0.00 0.00 0.00 80 1012.2
20260905230045 28 78 3.2 12.9 0.00 0.00 0.00 80 1012.2
20260905224610 28 274 4.8 9.7 0.00 0.00 0.00 79 1012.3
20260905223046 28 38 3.2 12.9 0.00 0.00 0.00 78 1012.2
20260905221542 29 109 4.8 12.9 0.00 0.00 0.00 77 1012.1
20260905220042 29 342 3.2 14.5 0.00 0.00 0.00 76 1011.9
20260905214547 30 360 1.6 9.7 0.00 0.00 0.00 76 1012.0
20260905213041 30 115 4.8 12.9 0.00 0.00 0.00 75 1011.9
20260905211546 30 311 3.2 16.1 0.00 0.00 0.00 76 1011.7
20260905210049 31 107 3.2 9.7 0.00 0.00 0.00 76 1011.5
20260905204539 31 54 4.8 17.7 0.00 0.00 0.00 74 1011.6
20260905203038 32 261 3.2 12.9 0.00 0.00 0.00 72 1011.7
20260905201535 32 314 4.8 16.1 0.00 0.00 0.00 71 1011.9
20260905200034 32 298 1.6 11.3 0.00 0.00 0.00 70 1011.8
20260905194529 32 57 0.0 4.8 0.00 0.00 0.00 69 1011.8
20260905193027 32 32 3.2 14.5 0.00 0.00 0.00 70 1011.9
20260905191527 32 259 1.6 11.3 0.00 0.00 0.00 71 1012.0
20260905190026 32 23 0.0 9.7 0.00 0.00 0.00 71 1012.3
20260905184530 32 44 1.6 6.4 0.00 0.00 0.00 70 1012.3
20260905183025 32 86 0.0 9.7 0.00 0.00 0.00 71 1012.2
20260905181524 32 45 0.0 8.0 0.00 0.00 0.00 72 1012.3
20260905180025 31 90 1.6 8.0 0.00 0.00 0.00 72 1012.4
20260905174525 32 297 1.6 9.7 0.00 0.00 0.00 70 1012.5
20260905173021 32 76 0.0 6.4 0.00 0.00 0.00 70 1012.6
20260905171520 32 56 1.6 11.3 0.00 0.00 0.00 69 1012.6
20260905170016 32 55 0.0 9.7 0.00 0.00 0.00 71 1012.8
20260905164523 31 180 0.0 8.0 0.00 0.00 0.00 72 1012.9
20260905163012 31 144 1.6 12.9 0.00 0.00 0.00 70 1012.9
20260905161509 31 33 1.6 9.7 0.00 0.00 0.00 72 1012.8
20260905160007 31 61 4.8 12.9 0.00 0.00 0.00 72 1012.8
20260905154504 30 47 4.8 12.9 0.00 0.00 0.00 74 1012.8
20260905153101 30 111 3.2 14.5 0.00 0.00 0.00 75 1012.8
20260905151558 30 348 3.2 9.7 0.00 0.00 0.00 76 1012.7
20260905150100 29 313 3.2 12.9 0.00 0.00 0.00 76 1012.5
20260905144551 28 148 1.6 9.7 0.00 0.00 0.00 78 1012.4
20260905143047 28 27 0.0 8.0 0.00 0.00 0.00 82 1012.2
20260905141544 27 80 1.6 6.4 0.00 0.00 0.00 85 1012.0
20260905140040 27 82 1.6 9.7 0.00 0.00 0.00 87 1012.0
20260905134538 26 72 3.2 9.7 0.00 0.00 0.00 89 1012.0
20260905133040 26 49 1.6 8.0 0.00 0.00 0.00 90 1011.9
20260905131536 25 65 1.6 3.2 0.00 0.00 0.00 91 1011.8
20260905130036 25 309 0.0 3.2 0.00 0.00 0.00 92 1011.9
20260905124535 25 25 0.0 1.6 0.00 0.00 0.00 93 1011.8
20260905123035 24 300 1.6 4.8 0.00 0.00 0.00 93 1011.6
20260905121532 24 306 3.2 6.4 0.00 0.00 0.00 93 1011.5
20260905120029 23 305 1.6 3.2 0.00 0.00 0.00 93 1011.2
20260905114531 23 290 1.6 4.8 0.00 0.00 0.00 93 1010.9
20260905113027 24 303 0.0 0.0 0.00 0.00 0.00 92 1010.7
20260905111526 24 303 0.0 1.6 0.00 0.00 0.00 92 1010.6
20260905110025 24 303 0.0 1.6 0.00 0.00 0.00 92 1010.6
20260905104524 24 303 0.0 1.6 0.00 0.00 0.00 92 1010.5
20260905103023 25 303 0.0 1.6 0.00 0.00 0.00 91 1010.6
20260905101525 25 303 0.0 3.2 0.00 0.00 0.00 92 1010.6
20260905100043 25 312 0.0 0.0 0.00 0.00 0.00 91 1010.7
20260905094521 25 312 0.0 4.8 0.00 0.00 0.00 91 1010.8
20260905093019 25 355 1.6 3.2 0.00 0.00 0.00 91 1010.7
20260905091517 25 355 0.0 0.0 0.00 0.00 0.00 91 1010.7
20260905090016 25 355 0.0 0.0 0.00 0.00 0.00 91 1010.8
20260905084514 25 355 0.0 0.0 0.00 0.00 0.00 91 1010.8
20260905083012 25 355 0.0 0.0 0.00 0.00 0.00 90 1011.0
20260905081511 25 355 0.0 0.0 0.00 0.00 0.00 90 1011.0
20260905080109 25 355 0.0 3.2 0.00 0.00 0.00 89 1011.1
20260905074510 26 81 0.0 0.0 0.00 0.00 0.00 89 1011.0
20260905073009 26 81 0.0 1.6 0.00 0.00 0.00 89 1011.0
20260905071506 26 81 0.0 0.0 0.00 0.00 0.00 90 1011.1
20260905070005 26 81 0.0 0.0 0.00 0.00 0.00 89 1011.1